User: anonymous   Login
Location: Unspecified
(0.0000°N, 0.0000°E)
Time: 10:37:38
(UTC+00:00)
Language:

SO-67 - Orbit

View from above orbital plane
View from above orbital plane
View from above satellite
View from above satellite

Ground track
Ground track

The orbit data is extracted from the following two-line orbital elements,

1 35870U 09049F   14351.89177322  .00017747  00000-0  49304-3 0  7962
2 35870 097.1494 007.6387 0002795 118.3834 000.9251 15.36927026292226
Epoch (UTC): 17 December 2014 21:24:09
Eccentricity: 0.0002795
inclination: 97.1494°
perigee height: 453 km
apogee height: 457 km
right ascension of ascending node: 7.6387°
argument of perigee: 118.3834°
revolutions per day: 15.36927026
mean anomaly at epoch: 0.9251°
orbit number at epoch: 29222

The dashed part of the orbit path shows where the satellite is in the earth's shadow,  

DLR